Estación de Morza Norte

Ultimos registro cada 15 minutos 84
Estación Fecha / Hora Temperatura Humedad Lluvia Velocidad Dirección Radiación Presion
84 Morza Norte 07-05-2026 20:45 9,7 65 0 0 143 0 1026,9
83 Morza Norte 07-05-2026 20:30 9,8 63 0 0 142 0 1026,9
82 Morza Norte 07-05-2026 20:15 10,1 62 0 0 142 0 1027
81 Morza Norte 07-05-2026 20:00 10,2 62 0 0 140 0 1027,1
80 Morza Norte 07-05-2026 19:45 10,3 61 0 0 140 0 1026,7
79 Morza Norte 07-05-2026 19:30 10,5 60 0 0 140 0 1026,5
78 Morza Norte 07-05-2026 19:15 10,6 60 0 0 135 0 1026,7
77 Morza Norte 07-05-2026 19:00 10,7 60 0 0 156 0 1026,1
76 Morza Norte 07-05-2026 18:45 10,9 59 0 0 155 0 1026,1
75 Morza Norte 07-05-2026 18:30 11,2 58 0 0 155 0 1026,3
74 Morza Norte 07-05-2026 18:15 11,3 58 0 0 129 0 1026,8
73 Morza Norte 07-05-2026 18:00 11,6 56 0 0 129 0 1026,7
72 Morza Norte 07-05-2026 17:45 11,9 55 0 0 145 5 1026,7
71 Morza Norte 07-05-2026 17:30 12,3 99 0 0 151 14 1026,5
70 Morza Norte 07-05-2026 17:15 12,7 55 0 0 161 30 1026,3
69 Morza Norte 07-05-2026 17:00 13 54 0 0 144 30 1026,6
68 Morza Norte 07-05-2026 16:45 13,3 53 0 0,9 139 47 1026,5
67 Morza Norte 07-05-2026 16:30 13,6 99 0 0 151 79 1026,6
66 Morza Norte 07-05-2026 16:15 14,1 52 0 1,8 174 120 1026,8
65 Morza Norte 07-05-2026 16:00 14,5 52 0 1,3 305 130 1026,9
64 Morza Norte 07-05-2026 15:45 14,6 52 0 0 339 172 1026,4
63 Morza Norte 07-05-2026 15:30 14,1 55 0 0 233 265 1026,4
62 Morza Norte 07-05-2026 15:15 13,6 55 0 0,4 158 86 1026,3
61 Morza Norte 07-05-2026 15:00 14,1 53 0 0,9 123 380 1026,5
60 Morza Norte 07-05-2026 14:45 13,8 99 0 0 128 429 1026,7
59 Morza Norte 07-05-2026 14:30 13,6 57 0 0 114 91 1027,2
58 Morza Norte 07-05-2026 14:15 13,7 55 0 0 277 403 1027,3
57 Morza Norte 07-05-2026 14:00 13,1 60 0 0 91 360 1027,3
56 Morza Norte 07-05-2026 13:45 13,1 60 0 0 91 360 1027,3
55 Morza Norte 07-05-2026 13:30 13,2 60 0 0 262 109 1027,5
54 Morza Norte 07-05-2026 13:15 12,9 65 0 0 316 292 1027,4
53 Morza Norte 07-05-2026 13:00 11,8 65 0 0 274 258 1028
52 Morza Norte 07-05-2026 12:45 11,8 65 0 0 274 258 1028
51 Morza Norte 07-05-2026 12:30 11,5 67 0 0 19 350 1028,3
50 Morza Norte 07-05-2026 12:15 10,8 68 0 0 256 380 1028,4
49 Morza Norte 07-05-2026 12:00 10,4 68 0 0 324 214 1028,5
48 Morza Norte 07-05-2026 11:45 10,2 69 0 0 293 116 1028,5
47 Morza Norte 07-05-2026 11:30 9,9 69 0 0 290 128 1028,6
46 Morza Norte 07-05-2026 11:15 9,7 69 0 0 214 95 1028,6
45 Morza Norte 07-05-2026 11:00 9,6 69 0 0 285 76 1028,2
44 Morza Norte 07-05-2026 10:45 9,6 69 0 0 285 76 1028,2
43 Morza Norte 07-05-2026 10:30 9,4 99 0 0 285 98 1028,2
42 Morza Norte 07-05-2026 10:15 9,3 70 0 0 296 76 1028,4
41 Morza Norte 07-05-2026 10:00 9,1 70 0 0 277 63 1028,2
40 Morza Norte 07-05-2026 09:45 9,1 71 0 0 260 81 1028,3
39 Morza Norte 07-05-2026 09:30 9 71 0 0 271 81 1028,3
38 Morza Norte 07-05-2026 09:15 8,8 71 0 0 272 84 1028
37 Morza Norte 07-05-2026 09:00 8,7 71 0 0 333 67 1028,1
36 Morza Norte 07-05-2026 08:45 8,4 71 0 0 335 51 1027,8
35 Morza Norte 07-05-2026 08:30 8,3 71 0 0 312 42 1027,8
34 Morza Norte 07-05-2026 08:15 8,1 71 0 0 288 37 1027,6
33 Morza Norte 07-05-2026 08:00 7,9 71 0 0 247 12 1027,4
32 Morza Norte 07-05-2026 07:45 7,7 71 0 0 287 7 1027,2
31 Morza Norte 07-05-2026 07:30 7,6 71 0 0 159 5 1026,7
30 Morza Norte 07-05-2026 07:15 7,8 70 0 0 159 0 1026,8
29 Morza Norte 07-05-2026 07:00 8 70 0 0 158 0 1026,8
28 Morza Norte 07-05-2026 06:45 8,3 70 0 0 158 0 1026,9
27 Morza Norte 07-05-2026 06:30 8,6 70 0 0 279 0 1026,8
26 Morza Norte 07-05-2026 06:15 8,6 70 0 0 158 0 1026,9
25 Morza Norte 07-05-2026 06:00 8,6 70 0 0 110 0 1026,4
24 Morza Norte 07-05-2026 05:45 8,6 70 0 0 110 0 1026,4
23 Morza Norte 07-05-2026 05:30 8,6 70 0 0 132 0 1026,4
22 Morza Norte 07-05-2026 05:15 8,6 70 0 0 161 0 1025,9
21 Morza Norte 07-05-2026 05:00 8,6 70 0 0 160 0 1025,9
20 Morza Norte 07-05-2026 04:45 8,8 70 0 0 169 0 1025,6
19 Morza Norte 07-05-2026 04:30 8,8 99 0 0 138 0 1025,6
18 Morza Norte 07-05-2026 04:15 8,9 70 0 0 151 0 1025,2
17 Morza Norte 07-05-2026 04:00 8,9 70 0 0 156 0 1025,3
16 Morza Norte 07-05-2026 03:45 9 70 0 0 157 0 1025,2
15 Morza Norte 07-05-2026 03:30 9,1 99 0 0 157 0 1025,2
14 Morza Norte 07-05-2026 03:15 9,1 70 0 0 160 0 1025,2
13 Morza Norte 07-05-2026 03:00 9,2 70 0 0 158 0 1025,3
12 Morza Norte 07-05-2026 02:45 9,2 70 0 0 155 0 1025,1
11 Morza Norte 07-05-2026 02:30 9,2 99 0 0,4 169 0 1025,3
10 Morza Norte 07-05-2026 02:15 9,3 70 0 0 310 0 1025
9 Morza Norte 07-05-2026 02:00 9,3 70 0 0 174 0 1024,6
8 Morza Norte 07-05-2026 01:45 9,4 70 0 0 266 0 1024,6
7 Morza Norte 07-05-2026 01:30 9,5 71 0 0 268 0 1024,3
6 Morza Norte 07-05-2026 01:15 9,6 70 0 0 216 0 1024,3
5 Morza Norte 07-05-2026 01:00 9,8 71 0 0 245 0 1024,1
4 Morza Norte 07-05-2026 00:45 9,8 71 0 0 245 0 1024,1
3 Morza Norte 07-05-2026 00:30 9,8 71 0 0 161 0 1024,3
2 Morza Norte 07-05-2026 00:15 9,9 71 0 0 160 0 1024,4
1 Morza Norte 07-05-2026 00:00 10,2 71 0 0,4 133 0 1024,2